This is the latest recevied weather packets stored in our database for station/object N2UFM. If no packets are shown the sender has not sent any weather packets the latest 10 day(s).
| Time | Temp. | Humidity | Pressure | Rain* | Wind** | Luminosity | Snow |
|---|---|---|---|---|---|---|---|
| 1777842457 | 17.78° C | 29% | 1011.8 hPa | 0 mm | - | - | - |
| 1777842157 | 17.22° C | 29% | 1011.8 hPa | 0 mm | - | - | - |
| 1777841857 | 17.22° C | 29% | 1011.6 hPa | 0 mm | - | - | - |
| 1777841557 | 16.67° C | 29% | 1011.7 hPa | 0 mm | - | - | - |
| 1777841256 | 17.22° C | 29% | 1011.6 hPa | 0 mm | - | - | - |
| 1777840956 | 17.22° C | 29% | 1011.6 hPa | 0 mm | - | - | - |
| 1777840656 | 17.22° C | 29% | 1011.7 hPa | 0 mm | - | - | - |
| 1777840356 | 17.22° C | 29% | 1011.7 hPa | 0 mm | - | - | - |
| 1777840056 | 17.22° C | 30% | 1011.7 hPa | 0 mm | - | - | - |
| 1777839756 | 17.22° C | 30% | 1011.8 hPa | 0 mm | - | - | - |
| 1777839455 | 16.67° C | 30% | 1011.8 hPa | 0 mm | - | - | - |
| 1777839155 | 16.67° C | 29% | 1011.8 hPa | 0 mm | - | - | - |
| 1777838855 | 16.67° C | 29% | 1011.9 hPa | 0 mm | - | - | - |
| 1777838555 | 16.67° C | 30% | 1011.8 hPa | 0 mm | - | - | - |
| 1777838255 | 16.67° C | 31% | 1012.1 hPa | 0 mm | - | - | - |
| 1777837955 | 16.67° C | 31% | 1012 hPa | 0 mm | - | - | - |
| 1777837655 | 16.11° C | 32% | 1012 hPa | 0 mm | - | - | - |
| 1777837354 | 15.56° C | 32% | 1012.2 hPa | 0 mm | - | - | - |
| 1777837054 | 15.56° C | 32% | 1012.2 hPa | 0 mm | - | - | - |
| 1777836754 | 15.56° C | 32% | 1012.3 hPa | 0 mm | - | - | - |
| 1777836454 | 15.56° C | 32% | 1012.3 hPa | 0 mm | - | - | - |
| 1777836154 | 15° C | 33% | 1012.3 hPa | 0 mm | - | - | - |
| 1777835854 | 15.56° C | 32% | 1012.4 hPa | 0 mm | - | - | - |
| 1777835553 | 16.11° C | 32% | 1012.3 hPa | 0 mm | - | - | - |
| 1777835253 | 16.11° C | 33% | 1012.4 hPa | 0 mm | - | - | - |
* Rain latest hour (hover to see other rain measurements)
** Current wind speed in m/s (hover to see current wind gust speed)